Total_Precipitation_Accumulation
0.11 0.10 0.14 0.26 0.33 0.29 0.31 0.37 0.42 0.46 0.55 0.70 0.81 0.85 0.82 0.73 0.57 0.46 0.38 0.28 0.23 0.23 0.29 0.35 0.43 0.48 0.55 0.69 0.89 0.93 0.75 0.55 0.47 0.45 0.39 0.31 0.26 0.23 0.22 0.23 0.22 0.24 0.22 0.23
0.12 0.08 0.09 0.10 0.09 0.10 0.11 0.15 0.21 0.31 0.45 0.54 0.59 0.58 0.52 0.41 0.28 0.24 0.21 0.15 0.12 0.13 0.15 0.16 0.17 0.25 0.37 0.45 0.51 0.47 0.38 0.31 0.28 0.23 0.19 0.17 0.16 0.15 0.11 0.09 0.10 0.15 0.15 0.18
0.21 0.10 0.10 0.08 0.05 0.07 0.13 0.15 0.21 0.37 0.44 0.39 0.37 0.35 0.33 0.24 0.15 0.13 0.11 0.08 0.07 0.07 0.09 0.09 0.08 0.09 0.10 0.15 0.20 0.20 0.14 0.10 0.10 0.09 0.08 0.07 0.07 0.07 0.07 0.07 0.07 0.09 0.09 0.15
0.25 0.22 0.18 0.06 0.03 0.05 0.09 0.14 0.21 0.30 0.30 0.24 0.20 0.17 0.16 0.12 0.08 0.07 0.06 0.05 0.04 0.04 0.05 0.05 0.06 0.07 0.07 0.07 0.10 0.13 0.10 0.07 0.06 0.07 0.07 0.07 0.07 0.06 0.04 0.03 0.04 0.08 0.09 0.16
0.28 0.31 0.15 0.04 0.03 0.03 0.04 0.06 0.07 0.09 0.10 0.08 0.06 0.07 0.07 0.06 0.05 0.05 0.05 0.04 0.04 0.05 0.05 0.05 0.06 0.08 0.06 0.04 0.05 0.07 0.09 0.09 0.08 0.08 0.09 0.08 0.07 0.05 0.03 0.03 0.04 0.07 0.11 0.12
0.27 0.29 0.19 0.07 0.05 0.04 0.04 0.05 0.04 0.03 0.03 0.03 0.03 0.06 0.06 0.05 0.04 0.04 0.06 0.05 0.06 0.07 0.07 0.06 0.07 0.07 0.06 0.05 0.05 0.05 0.07 0.08 0.11 0.12 0.10 0.09 0.11 0.12 0.09 0.07 0.06 0.07 0.09 0.10
0.24 0.27 0.14 0.06 0.06 0.06 0.07 0.06 0.03 0.02 0.02 0.02 0.03 0.04 0.04 0.03 0.04 0.05 0.07 0.08 0.08 0.08 0.08 0.07 0.07 0.08 0.07 0.05 0.05 0.05 0.06 0.09 0.09 0.08 0.09 0.10 0.12 0.15 0.14 0.10 0.09 0.08 0.08 0.07
0.21 0.25 0.12 0.05 0.05 0.06 0.05 0.03 0.02 0.02 0.02 0.02 0.03 0.04 0.03 0.04 0.04 0.05 0.07 0.08 0.08 0.08 0.07 0.08 0.07 0.08 0.07 0.06 0.07 0.07 0.07 0.08 0.08 0.08 0.08 0.09 0.12 0.11 0.09 0.08 0.07 0.06 0.06 0.06
0.16 0.12 0.07 0.06 0.06 0.05 0.04 0.03 0.02 0.01 0.02 0.02 0.02 0.03 0.04 0.04 0.04 0.04 0.06 0.06 0.06 0.07 0.07 0.08 0.08 0.08 0.09 0.09 0.09 0.07 0.06 0.07 0.09 0.09 0.10 0.11 0.11 0.10 0.09 0.07 0.07 0.07 0.07 0.07
0.13 0.08 0.05 0.07 0.06 0.05 0.04 0.03 0.02 0.01 0.01 0.02 0.02 0.03 0.04 0.03 0.04 0.04 0.06 0.06 0.06 0.07 0.09 0.09 0.10 0.10 0.11 0.11 0.09 0.07 0.06 0.07 0.09 0.10 0.12 0.12 0.11 0.09 0.09 0.07 0.08 0.09 0.09 0.09
0.10 0.08 0.06 0.06 0.05 0.03 0.02 0.02 0.02 0.02 0.01 0.02 0.02 0.03 0.03 0.03 0.04 0.04 0.04 0.04 0.05 0.05 0.06 0.08 0.09 0.09 0.09 0.08 0.07 0.06 0.06 0.07 0.09 0.09 0.10 0.12 0.11 0.10 0.10 0.09 0.09 0.10 0.10 0.11
0.11 0.11 0.10 0.07 0.06 0.04 0.03 0.03 0.03 0.03 0.02 0.02 0.02 0.03 0.04 0.04 0.05 0.05 0.04 0.04 0.03 0.05 0.06 0.06 0.07 0.07 0.07 0.08 0.08 0.07 0.06 0.06 0.08 0.08 0.08 0.10 0.12 0.12 0.12 0.11 0.12 0.11 0.11 0.11
0.12 0.10 0.10 0.08 0.05 0.04 0.04 0.04 0.03 0.02 0.03 0.02 0.02 0.02 0.03 0.04 0.05 0.06 0.07 0.08 0.07 0.08 0.09 0.08 0.09 0.10 0.09 0.09 0.09 0.08 0.07 0.07 0.08 0.07 0.07 0.08 0.11 0.13 0.15 0.15 0.14 0.12 0.13 0.12
0.07 0.07 0.08 0.08 0.06 0.04 0.04 0.04 0.03 0.02 0.02 0.02 0.03 0.04 0.04 0.05 0.06 0.06 0.06 0.07 0.09 0.08 0.09 0.09 0.11 0.11 0.11 0.12 0.11 0.11 0.11 0.11 0.12 0.10 0.09 0.09 0.11 0.12 0.14 0.16 0.18 0.16 0.14 0.13
0.04 0.04 0.06 0.06 0.05 0.04 0.03 0.02 0.02 0.02 0.02 0.02 0.02 0.04 0.05 0.06 0.05 0.04 0.04 0.04 0.05 0.05 0.04 0.05 0.07 0.07 0.08 0.09 0.12 0.14 0.15 0.14 0.14 0.14 0.12 0.10 0.11 0.11 0.12 0.13 0.14 0.16 0.16 0.15
0.03 0.03 0.03 0.04 0.05 0.04 0.03 0.03 0.02 0.02 0.01 0.01 0.02 0.04 0.07 0.07 0.05 0.04 0.05 0.04 0.04 0.04 0.03 0.03 0.04 0.05 0.06 0.06 0.07 0.09 0.12 0.15 0.15 0.14 0.13 0.11 0.11 0.11 0.11 0.12 0.14 0.15 0.15 0.17
0.04 0.03 0.03 0.04 0.05 0.04 0.04 0.03 0.02 0.02 0.01 0.01 0.02 0.06 0.09 0.11 0.08 0.05 0.05 0.06 0.05 0.05 0.04 0.03 0.03 0.05 0.06 0.06 0.06 0.06 0.09 0.14 0.13 0.11 0.10 0.10 0.11 0.13 0.14 0.13 0.13 0.13 0.13 0.14
0.04 0.04 0.03 0.04 0.05 0.04 0.04 0.04 0.03 0.03 0.03 0.02 0.03 0.06 0.13 0.16 0.11 0.06 0.05 0.07 0.08 0.07 0.05 0.04 0.04 0.05 0.05 0.06 0.06 0.07 0.08 0.09 0.10 0.11 0.11 0.11 0.11 0.12 0.12 0.12 0.12 0.12 0.12 0.13
0.04 0.05 0.04 0.04 0.04 0.04 0.05 0.04 0.04 0.03 0.02 0.02 0.04 0.07 0.14 0.14 0.10 0.07 0.06 0.07 0.07 0.07 0.05 0.05 0.07 0.07 0.07 0.07 0.06 0.05 0.06 0.06 0.06 0.08 0.10 0.11 0.12 0.12 0.12 0.11 0.12 0.12 0.13 0.13
0.06 0.05 0.05 0.05 0.05 0.05 0.06 0.05 0.04 0.03 0.03 0.03 0.05 0.08 0.11 0.11 0.09 0.07 0.06 0.06 0.05 0.05 0.05 0.05 0.07 0.07 0.07 0.06 0.06 0.05 0.05 0.06 0.06 0.07 0.09 0.11 0.12 0.13 0.12 0.12 0.12 0.14 0.14 0.14
0.08 0.08 0.06 0.07 0.07 0.06 0.06 0.06 0.05 0.04 0.05 0.06 0.08 0.10 0.11 0.11 0.10 0.09 0.08 0.08 0.06 0.06 0.06 0.06 0.06 0.07 0.07 0.09 0.08 0.07 0.07 0.08 0.09 0.10 0.11 0.13 0.14 0.13 0.14 0.14 0.13 0.13 0.14 0.15
0.08 0.10 0.08 0.07 0.08 0.07 0.06 0.06 0.05 0.05 0.04 0.04 0.06 0.07 0.09 0.13 0.13 0.11 0.09 0.09 0.09 0.09 0.07 0.06 0.07 0.09 0.10 0.11 0.10 0.10 0.10 0.10 0.11 0.12 0.13 0.14 0.16 0.17 0.17 0.17 0.17 0.16 0.16 0.17
0.07 0.08 0.08 0.07 0.08 0.07 0.06 0.07 0.07 0.07 0.06 0.05 0.06 0.05 0.05 0.08 0.10 0.10 0.10 0.09 0.10 0.11 0.10 0.08 0.09 0.12 0.13 0.12 0.10 0.11 0.12 0.12 0.12 0.13 0.14 0.15 0.17 0.18 0.18 0.18 0.19 0.20 0.19 0.19
0.09 0.08 0.07 0.08 0.08 0.07 0.07 0.06 0.06 0.06 0.08 0.08 0.07 0.06 0.06 0.07 0.09 0.10 0.10 0.11 0.12 0.12 0.12 0.11 0.12 0.13 0.13 0.11 0.12 0.13 0.13 0.14 0.14 0.15 0.15 0.14 0.15 0.16 0.17 0.19 0.19 0.20 0.21 0.21
0.09 0.09 0.08 0.09 0.10 0.10 0.09 0.07 0.06 0.07 0.08 0.09 0.08 0.07 0.08 0.08 0.11 0.13 0.14 0.14 0.14 0.15 0.14 0.14 0.15 0.15 0.14 0.13 0.14 0.14 0.14 0.15 0.17 0.18 0.18 0.18 0.19 0.20 0.21 0.22 0.22 0.22 0.22 0.23
0.09 0.10 0.10 0.10 0.11 0.12 0.12 0.10 0.10 0.10 0.11 0.12 0.11 0.10 0.09 0.09 0.09 0.10 0.12 0.15 0.16 0.18 0.18 0.18 0.18 0.17 0.16 0.17 0.17 0.18 0.18 0.19 0.20 0.21 0.21 0.23 0.26 0.28 0.29 0.28 0.27 0.25 0.25 0.27
0.11 0.12 0.13 0.14 0.14 0.13 0.13 0.13 0.13 0.14 0.16 0.17 0.17 0.15 0.13 0.13 0.13 0.13 0.13 0.15 0.16 0.17 0.18 0.20 0.21 0.21 0.22 0.22 0.22 0.22 0.23 0.25 0.26 0.27 0.28 0.30 0.31 0.31 0.31 0.32 0.32 0.32 0.31 0.32